Change the Weather History Date:

Tuesday, March 19, 2013

  Actual Average Record
Temperature  
Mean Temperature 42 °F 42 °F  
Max Temperature 53 °F 54 °F 78 °F (2012)
Min Temperature 31 °F 31 °F 9 °F (1967)
Degree Days  
Heating Degree Days 23 23  
Month to date heating degree days 540 480  
Since 1 July heating degree days 4400 4528  
Cooling Degree Days 0 0  
Month to date cooling degree days 0 0  
Year to date cooling degree days 0 0  
Moisture  
Dew Point 27 °F    
Average Humidity 62    
Maximum Humidity 100    
Minimum Humidity 23    
Precipitation  
Precipitation 0.00 in 0.12 in 1.41 in (1998)
Month to date precipitation 2.32 2.11  
Year to date precipitation 11.42 8.00  
Snow  
Snow 0.00 in - - ()
Month to date snowfall 0.5  
Since 1 July snowfall 18.1  
Snow Depth 0.00 in    
Sea Level Pressure  
Sea Level Pressure 29.91 in    
Wind  
Wind Speed 11 mph (West)    
Max Wind Speed 22 mph    
Max Gust Speed 36 mph    
Visibility 8 miles    
Events Fog    
T = Trace of Precipitation, MM = Missing Value Source: NWS Daily Summary

Daily Weather History Graph

Daily Weather History Graph

Search for Another Location

Airport or City:

Trip Planner

Search our weather history database for the weather conditions in past years. The results will help you decide how hot, cold, wet, or windy it might be!

Date:

Astronomy

Mar. 19, 2013 Rise Set
Actual Time 7:26 AM EDT 7:32 PM EDT
Civil Twilight 7:00 AM EDT 7:58 PM EDT
Nautical Twilight 6:30 AM EDT 8:29 PM EDT
Astronomical Twilight 5:59 AM EDT 8:59 PM EDT
Moon 12:22 PM EDT (3/19) 2:11 AM EDT (3/19)
Length of Visible Light 12h 58m
Length of Day
12h 06m
Waxing Crescent, 49% of the Moon is Illuminated
Mar 19
Waxing Crescent
Mar 19
First Quarter
Mar 27
Full
Apr 3
Last Quarter
Apr 10
New

Hourly Weather History & Observations

Time (EDT) Temp. Windchill Dew Point Humidity Pressure Visibility Wind Dir Wind Speed Gust Speed Precip Events Conditions
12:15 AM 33.8 °F - 33.8 °F 100% 29.88 in 5.0 mi Calm Calm - N/A   Overcast
12:35 AM 35.6 °F - 35.6 °F 100% 29.87 in 3.0 mi Calm Calm - N/A   Overcast
12:55 AM 35.6 °F - 35.6 °F 100% 29.87 in 3.0 mi Calm Calm - N/A   Overcast
1:15 AM 35.6 °F - 35.6 °F 100% 29.87 in 2.0 mi Calm Calm - N/A   Overcast
1:35 AM 35.6 °F - 35.6 °F 100% 29.85 in 1.5 mi Calm Calm - N/A   Overcast
1:55 AM 35.6 °F - 35.6 °F 100% 29.85 in 0.5 mi Calm Calm - N/A Fog Fog
2:15 AM 35.6 °F - 35.6 °F 100% 29.84 in 0.2 mi Calm Calm - N/A Fog Fog
2:35 AM 35.6 °F - 35.6 °F 100% 29.84 in 0.2 mi Calm Calm - N/A Fog Fog
2:55 AM 35.6 °F - 35.6 °F 100% 29.84 in 0.2 mi Calm Calm - N/A Fog Fog
3:15 AM 35.6 °F - 35.6 °F 100% 29.83 in 0.2 mi Calm Calm - N/A Fog Fog
3:55 AM 35.6 °F - 35.6 °F 100% 29.82 in 0.5 mi Calm Calm - N/A Fog Fog
4:15 AM 35.6 °F - 35.6 °F 100% 29.81 in 0.8 mi Calm Calm - N/A   Overcast
4:35 AM 35.6 °F 32.8 °F 35.6 °F 100% 29.80 in 0.2 mi WSW 3.5 mph - N/A Fog Fog
4:55 AM 35.6 °F 31.7 °F 35.6 °F 100% 29.81 in 0.2 mi West 4.6 mph - N/A Fog Fog
5:15 AM 35.6 °F 32.8 °F 35.6 °F 100% 29.82 in 0.2 mi West 3.5 mph - N/A Fog Fog
5:35 AM 35.6 °F 31.7 °F 35.6 °F 100% 29.82 in 0.2 mi WSW 4.6 mph - N/A Fog Fog
5:55 AM 35.6 °F 32.8 °F 35.6 °F 100% 29.83 in 0.5 mi WNW 3.5 mph - N/A Fog Fog
6:15 AM 35.6 °F - 35.6 °F 100% 29.83 in 1.0 mi Calm Calm - N/A   Overcast
6:35 AM 37.4 °F 31.4 °F 37.4 °F 100% 29.85 in 4.0 mi West 8.1 mph - N/A   Overcast
6:55 AM 39.2 °F 32.5 °F 39.2 °F 100% 29.86 in 7.0 mi WNW 10.4 mph 16.1 mph N/A   Overcast
7:15 AM 41.0 °F 33.1 °F 41.0 °F 100% 29.88 in 10.0 mi West 15.0 mph 27.6 mph 0.01 in   Overcast
7:35 AM 39.2 °F 30.8 °F 39.2 °F 100% 29.88 in 10.0 mi West 15.0 mph 25.3 mph 0.01 in   Overcast
7:55 AM 39.2 °F 31.2 °F 39.2 °F 100% 29.88 in 10.0 mi WNW 13.8 mph 24.2 mph 0.01 in   Mostly Cloudy
8:15 AM 39.2 °F 30.5 °F 37.4 °F 93% 29.89 in 10.0 mi West 16.1 mph 21.9 mph N/A   Clear
8:35 AM 39.2 °F 29.8 °F 35.6 °F 87% 29.91 in 10.0 mi WNW 18.4 mph 27.6 mph N/A   Clear
8:55 AM 41.0 °F 32.8 °F 35.6 °F 81% 29.92 in 10.0 mi WNW 16.1 mph 29.9 mph N/A   Clear
9:15 AM 42.8 °F 35.4 °F 35.6 °F 76% 29.93 in 10.0 mi WNW 15.0 mph 25.3 mph N/A   Clear
9:35 AM 42.8 °F 34.3 °F 33.8 °F 70% 29.94 in 10.0 mi WNW 19.6 mph 27.6 mph N/A   Clear
9:55 AM 42.8 °F 36.2 °F 35.6 °F 76% 29.94 in 10.0 mi West 12.7 mph 19.6 mph N/A   Clear
10:15 AM 42.8 °F 36.2 °F 33.8 °F 70% 29.93 in 10.0 mi West 12.7 mph 25.3 mph N/A   Clear
10:35 AM 44.6 °F 38.8 °F 33.8 °F 66% 29.93 in 10.0 mi West 11.5 mph 20.7 mph N/A   Clear
10:55 AM 44.6 °F 38.1 °F 33.8 °F 66% 29.93 in 10.0 mi West 13.8 mph 20.7 mph N/A   Clear
11:15 AM 46.4 °F 40.4 °F 33.8 °F 62% 29.93 in 10.0 mi West 13.8 mph 19.6 mph N/A   Clear
11:35 AM 46.4 °F 40.7 °F 33.8 °F 62% 29.93 in 10.0 mi West 12.7 mph 19.6 mph N/A   Clear
11:55 AM 48.2 °F - 33.8 °F 58% 29.92 in 10.0 mi West 12.7 mph 18.4 mph N/A   Clear
12:15 PM 48.2 °F - 33.8 °F 58% 29.93 in 10.0 mi West 15.0 mph 21.9 mph N/A   Clear
12:35 PM 48.2 °F - 30.2 °F 50% 29.92 in 10.0 mi West 13.8 mph 23.0 mph N/A   Clear
12:55 PM 50.0 °F - 30.2 °F 47% 29.91 in 10.0 mi West 13.8 mph 23.0 mph N/A   Clear
1:15 PM 51.8 °F - 28.4 °F 41% 29.90 in 10.0 mi WSW 13.8 mph 25.3 mph N/A   Clear
1:35 PM 51.8 °F - 28.4 °F 41% 29.90 in 10.0 mi WSW 13.8 mph 23.0 mph N/A   Clear
1:55 PM 53.6 °F - 28.4 °F 38% 29.89 in 10.0 mi West 12.7 mph 24.2 mph N/A   Clear
2:15 PM 53.6 °F - 28.4 °F 38% 29.88 in 10.0 mi WSW 16.1 mph 25.3 mph N/A   Clear
2:35 PM 53.6 °F - 28.4 °F 38% 29.87 in 10.0 mi West 12.7 mph 21.9 mph N/A   Clear
2:55 PM 55.4 °F - 28.4 °F 36% 29.87 in 10.0 mi West 11.5 mph 19.6 mph N/A   Clear
3:15 PM 55.4 °F - 28.4 °F 36% 29.87 in 10.0 mi West 13.8 mph 23.0 mph N/A   Clear
3:35 PM 55.4 °F - 28.4 °F 36% 29.88 in 10.0 mi West 18.4 mph 28.8 mph N/A   Clear
3:55 PM 55.4 °F - 28.4 °F 36% 29.87 in 10.0 mi West 15.0 mph 27.6 mph N/A   Clear
4:15 PM 55.4 °F - 26.6 °F 33% 29.88 in 10.0 mi WNW 13.8 mph 26.5 mph N/A   Clear
4:35 PM 53.6 °F - 24.8 °F 33% 29.89 in 10.0 mi WNW 15.0 mph 31.1 mph N/A   Clear
4:55 PM 53.6 °F - 21.2 °F 28% 29.90 in 10.0 mi West 16.1 mph 35.7 mph N/A   Clear
5:15 PM 53.6 °F - 21.2 °F 28% 29.91 in 10.0 mi WNW 20.7 mph 29.9 mph N/A   Clear
5:35 PM 51.8 °F - 19.4 °F 28% 29.92 in 10.0 mi WNW 19.6 mph 28.8 mph N/A   Clear
5:55 PM 51.8 °F - 17.6 °F 26% 29.92 in 10.0 mi WNW 21.9 mph 33.4 mph N/A   Clear
6:15 PM 51.8 °F - 15.8 °F 24% 29.93 in 10.0 mi WNW 18.4 mph 33.4 mph N/A   Clear
6:35 PM 50.0 °F - 12.2 °F 22% 29.93 in 10.0 mi WNW 16.1 mph 32.2 mph N/A   Clear
6:55 PM 48.2 °F - 12.2 °F 24% 29.94 in 10.0 mi WNW 13.8 mph 27.6 mph N/A   Clear
7:15 PM 48.2 °F - 10.4 °F 22% 29.96 in 10.0 mi WNW 17.3 mph 29.9 mph N/A   Clear
7:35 PM 46.4 °F 38.5 °F 10.4 °F 23% 29.97 in 10.0 mi WNW 21.9 mph 35.7 mph N/A   Clear
7:55 PM 46.4 °F 40.4 °F 10.4 °F 23% 29.97 in 10.0 mi WNW 13.8 mph 28.8 mph N/A   Clear
8:15 PM 46.4 °F 40.1 °F 10.4 °F 23% 29.97 in 10.0 mi West 15.0 mph 25.3 mph N/A   Clear
8:35 PM 44.6 °F 40.2 °F 10.4 °F 25% 29.99 in 10.0 mi WNW 8.1 mph 21.9 mph N/A   Clear
8:55 PM 44.6 °F 38.4 °F 10.4 °F 25% 30.00 in 10.0 mi WNW 12.7 mph 18.4 mph N/A   Clear
9:15 PM 44.6 °F 37.8 °F 10.4 °F 25% 30.01 in 10.0 mi WNW 15.0 mph 23.0 mph N/A   Clear
9:35 PM 42.8 °F 35.4 °F 8.6 °F 25% 30.02 in 10.0 mi WNW 15.0 mph 24.2 mph N/A   Clear
9:55 PM 42.8 °F 37.5 °F 8.6 °F 25% 30.02 in 10.0 mi WNW 9.2 mph 20.7 mph N/A   Clear
10:15 PM 42.8 °F 36.6 °F 8.6 °F 25% 30.03 in 10.0 mi WNW 11.5 mph 19.6 mph N/A   Clear
10:35 PM 41.0 °F 32.8 °F 8.6 °F 26% 30.03 in 10.0 mi WNW 16.1 mph 23.0 mph N/A   Clear
10:55 PM 41.0 °F 35.2 °F 8.6 °F 26% 30.03 in 10.0 mi WNW 9.2 mph 17.3 mph N/A   Clear
11:15 PM 39.2 °F 34.2 °F 8.6 °F 28% 30.03 in 10.0 mi WNW 6.9 mph 16.1 mph N/A   Clear
11:35 PM 39.2 °F 32.0 °F 8.6 °F 28% 30.03 in 10.0 mi WNW 11.5 mph 18.4 mph N/A   Clear
11:55 PM 39.2 °F 31.2 °F 10.4 °F 31% 30.04 in 10.0 mi WNW 13.8 mph 18.4 mph N/A   Clear